Location: Andershausen
(51.8462°N, 9.8595°E)
Time: 02:36:12
(UTC+00:00)

COSMOS 2406 - Pass Details

Date: 18 November 2025
Orbit: 845 x 859 km, 71.0° (Epoch: 13 December)

Event Time Altitude Azimuth Distance (km) Brightness Sun altitude
Rises 16:21:44 0° 330° (NNW) 3,418 6.5 -8.6°
Reaches altitude 10° 16:24:25 10° 339° (NNW) 2,480 5.7 -9.0°
Maximum altitude 16:29:36 35° 45° (NE) 1,348 3.8 -9.8°
Drops below altitude 10° 16:34:46 10° 111° (ESE) 2,474 5.2 -10.5°
Enters shadow 16:36:53 - 118° (ESE) 3,207 5.8 -10.8°
